User: anonymous   Login
Location: Unspecified
(0.0000°N, 0.0000°E)
Time: 06:30:49
(UTC+00:00)
Language:

Falcon 9 debris - Orbit

View from above orbital plane
View from above orbital plane
View from above satellite
View from above satellite

Ground track
Ground track

The orbit data is extracted from the following two-line orbital elements,

1 44298U 19029BR  19258.82991312  .00001375  00000-0  39041-4 0  9995
2 44298  53.0046 349.4693 0003335 292.7217  67.3435 15.43809208 18950
Epoch (UTC): 15 September 2019 19:55:04
Eccentricity: 0.0003335
inclination: 53.0046°
perigee height: 432 km
apogee height: 437 km
right ascension of ascending node: 349.4693°
argument of perigee: 292.7217°
revolutions per day: 15.43809208
mean anomaly at epoch: 67.3435°
orbit number at epoch: 1895

The dashed part of the orbit path shows where the satellite is in the earth's shadow,  

DLR